[[{"header":{"parameterUnit":"m.s-1","parameterCategory":1,"la1":30.2991,"la2":30.254,"lo1":-89.0895,"lo2":-89.0444,"dy":0.0017,"dx":0.0017,"nx":28,"ny":28,"refTime":"2024-10-12T21:00:00:Z","depth":0,"parameterNumber":2,"parameterNumberName":"U-component_of_WINDS"},"data":[0,0,0,0,0,0,0,0,0,0,0,0,0,0,0,0,0,0,0,0,0,0,0,0,0,0,0,0,0,0,0,0,0,0,0,0,0,0,0,0,0,0,0,0,0,0,0,0,0,0,0,0,0,0,0,0,0,0,4.1402,4.1403,0,4.1486,4.1486,4.1487,4.144,4.1437,4.1435,4.1433,4.1521,4.1525,4.153,0,0,0,0,0,0,0,0,0,0,0,0,0,4.1207,4.1211,4.1402,4.1403,4.1404,4.1485,4.1487,4.1488,4.144,4.1437,4.1434,4.1432,4.152,4.1525,4.153,0,0,0,0,0,0,0,0,0,0,0,0,0,4.1291,4.1212,4.1402,4.139,4.139,4.1485,4.1487,4.1488,4.1441,4.1437,4.1434,4.143,4.1518,4.1524,4.1531,4.1643,0,0,4.1552,4.1555,0,0,0,0,0,0,0,0,4.1286,4.1298,4.1391,4.1391,4.1391,4.1449,4.145,4.154,4.1442,4.1422,4.1433,4.1429,4.15,4.1508,4.1531,4.1648,4.1651,4.1553,4.1557,4.156,4.1561,0,0,0,0,0,0,0,4.1281,4.1295,4.1435,4.1392,4.1393,4.1382,4.1391,4.1467,4.148,4.1423,4.142,4.143,4.1499,4.1525,4.1533,4.1653,4.1552,4.1558,4.1563,4.1565,4.1869,4.1873,0,0,0,0,0,0,4.1275,4.129,4.1433,4.1438,4.1329,4.1389,4.1398,4.1434,4.1479,4.1482,4.1433,4.1428,4.1515,4.1525,4.1536,4.1673,4.1559,4.1566,4.157,4.1865,4.187,4.1874,0,0,0,0,0,0,4.1271,4.1288,4.1429,4.1363,4.138,4.1396,4.1437,4.1437,4.1463,4.1486,4.1489,4.1457,4.1513,4.1527,4.1618,4.1675,4.1569,4.1575,4.186,4.1867,4.1872,4.1946,0,0,0,0,0,0,4.1266,4.1287,4.1329,4.1364,4.1384,4.1508,4.144,4.1441,4.1474,4.1468,4.1509,4.1512,4.1511,4.1608,4.1625,4.1683,4.158,4.1855,4.1863,4.187,4.1939,4.1954,4.1967,0,0,0,0,0,4.1259,4.1346,4.1331,4.1348,4.1436,4.1511,4.1523,4.1519,4.1479,4.1522,4.1538,4.1511,4.1666,4.1618,4.1636,4.1697,4.1852,4.1861,4.187,4.1932,4.1951,4.1967,0,0,0,0,0,0,4.1317,4.135,4.1334,4.1435,4.1471,4.1503,4.1557,4.1538,4.1587,4.1579,4.1573,4.1582,4.1678,4.1696,4.1642,4.181,4.1753,4.1766,4.1794,4.1812,4.1826,4.182,4.1586,0,0,0,0,0,4.1341,4.1398,4.1425,4.1512,4.1531,4.1541,4.1574,4.1568,4.1605,4.162,4.1642,4.168,4.1738,4.1776,4.183,4.1941,4.1951,4.1992,4.2007,4.2018,4.203,4.2093,4.2113,4.1904,4.1904,4.1904,0,0,4.1392,4.1418,4.1454,4.1524,4.1551,4.1613,4.1554,4.162,4.1667,4.163,4.1718,4.1736,4.1779,4.1881,4.1927,4.1899,4.209,4.203,4.2039,4.2044,4.2105,4.2124,4.2142,4.191,4.1909,4.1908,0,0,4.1517,4.1541,4.1617,4.1646,4.1688,4.1695,4.1713,4.1749,4.176,4.1848,4.1823,4.1878,4.1977,4.2009,4.2038,4.2179,4.2158,4.2197,4.2271,4.2333,4.235,4.2364,4.2417,4.2436,4.2209,4.2209,4.2209,0,4.1576,4.1666,4.1659,4.1729,4.1761,4.1731,4.181,4.1838,4.1896,4.192,4.1888,4.2013,4.204,4.2151,4.2186,4.2209,4.2232,4.2193,4.2348,4.2362,4.2376,4.2426,4.2446,4.2213,4.2213,4.2212,4.2212,0,4.1737,4.18,4.1857,4.1914,4.1953,4.2027,4.2033,4.2074,4.2065,4.2076,4.2168,4.2199,4.226,4.2286,4.2278,4.2398,4.2379,4.2348,4.2291,4.2401,4.2448,4.2467,4.222,4.2218,4.2217,4.2216,0,0,4.1899,4.1953,4.1974,4.2001,4.2046,4.2096,4.217,4.2229,4.2266,4.2307,4.2371,4.2456,4.2428,4.2462,4.2458,4.2512,4.2625,4.2474,4.2475,4.2503,4.2762,4.2786,4.2808,4.2611,4.2614,4.2617,4.2759,0,4.2029,4.2157,4.2154,4.2274,4.2334,4.2308,4.2372,4.2408,4.2421,4.2476,4.249,4.2552,4.2509,4.2529,4.2582,4.26,4.2677,4.2589,4.2672,4.2675,4.2663,4.2833,4.2858,4.299,4.2777,4.278,4.2782,0,4.2196,4.2244,4.237,4.2409,4.2434,4.2492,4.2548,4.26,4.2641,4.2647,4.2686,4.2674,4.2752,4.2692,4.2801,4.2741,4.2775,4.279,4.2795,4.2803,4.2736,4.2848,4.3032,4.3053,4.2811,4.2808,4.2806,0,4.2306,4.2401,4.2489,4.2513,4.256,4.2602,4.2624,4.2662,4.2699,4.2748,4.2773,4.2831,4.2863,4.291,4.2915,4.2871,4.3026,4.2965,4.3035,4.3035,4.3069,4.3067,4.3263,4.3088,4.3088,4.3088,4.3087,0,4.2451,4.253,4.2539,4.2594,4.2682,4.2679,4.2767,4.2786,4.282,4.288,4.286,4.2917,4.2919,4.2978,4.2983,4.3073,4.3088,4.3096,4.3097,4.3099,4.3098,4.3122,4.3114,4.3093,4.3092,4.3091,4.309,0,4.2588,4.2597,4.2692,4.273,4.2741,4.2805,4.2838,4.2891,4.2903,4.2978,4.2996,4.3015,4.3083,4.3093,4.3173,4.3176,4.3286,4.3276,4.3272,4.3271,4.3341,4.3335,4.356,4.3591,4.3394,4.3396,4.3398,0,4.2681,4.2741,4.2785,4.2824,4.2848,4.2909,4.2947,4.2948,4.2989,4.3042,4.309,4.3156,4.3209,4.332,4.3342,4.3404,4.3397,4.3471,4.3406,4.3407,4.3401,4.3398,4.3405,4.3484,4.3487,4.3488,4.349,0,4.2846,4.2848,4.2903,4.2961,4.3007,4.3053,4.3096,4.3128,4.3135,4.3182,4.3252,4.3293,4.3375,4.3442,4.3504,4.3528,4.3512,4.351,4.353,4.3533,4.353,4.3535,4.3308,4.3505,4.3504,4.3503,4.3502,4.3501,4.2965,4.3019,4.3059,4.3122,4.3154,4.3196,4.3248,4.3267,4.3325,4.3391,4.3389,4.3466,4.3509,4.359,4.3619,4.3681,4.3657,4.3685,4.3692,4.37,4.3708,4.3518,4.3692,4.3692,4.3691,4.3691,4.3691,0,4.3132,4.3157,4.3215,4.3276,4.3326,4.3305,4.3352,4.3396,4.3464,4.3505,4.3558,4.364,4.3705,4.3733,4.3798,4.3843,4.3837,4.386,4.3858,4.3864,4.3724,4.3702,4.3864,4.3864,4.3864,4.3864,4.3864,4.3864,4.3224,4.3314,4.3322,4.3429,4.3453,4.3528,4.3558,4.3597,4.363,4.3721,4.3776,4.3793,4.383,4.3898,4.3959,4.3965,4.3991,4.4019,4.4022,4.3891,4.3874,4.3857,4.3836,4.4024,4.4024,4.4157,4.4159,4.4159]},{"header":{"parameterUnit":"m.s-1","parameterCategory":1,"la1":30.2991,"la2":30.254,"lo1":-89.0895,"lo2":-89.0444,"dy":0.0017,"dx":0.0017,"nx":28,"ny":28,"refTime":"2024-10-12T21:00:00:Z","depth":0,"parameterNumber":3,"parameterNumberName":"V-component_of_WINDS"},"data":[0,0,0,0,0,0,0,0,0,0,0,0,0,0,0,0,0,0,0,0,0,0,0,0,0,0,0,0,0,0,0,0,0,0,0,0,0,0,0,0,0,0,0,0,0,0,0,0,0,0,0,0,0,0,0,0,0,0,-0.5847,-0.5846,0,-0.5828,-0.5828,-0.5827,-0.5816,-0.5816,-0.5816,-0.5816,-0.5796,-0.5796,-0.5795,0,0,0,0,0,0,0,0,0,0,0,0,0,-0.5874,-0.5873,-0.5847,-0.5846,-0.5846,-0.5828,-0.5828,-0.5827,-0.5816,-0.5816,-0.5816,-0.5816,-0.5796,-0.5796,-0.5795,0,0,0,0,0,0,0,0,0,0,0,0,0,-0.5859,-0.5873,-0.5847,-0.5838,-0.5837,-0.5828,-0.5828,-0.5827,-0.5816,-0.5816,-0.5816,-0.5816,-0.5796,-0.5796,-0.5795,-0.5793,0,0,-0.5793,-0.5793,0,0,0,0,0,0,0,0,-0.586,-0.5858,-0.584,-0.5839,-0.5838,-0.5824,-0.583,-0.5816,-0.5816,-0.5824,-0.5816,-0.5816,-0.5805,-0.5804,-0.5801,-0.5792,-0.5791,-0.5793,-0.5792,-0.5792,-0.5792,0,0,0,0,0,0,0,-0.5861,-0.5859,-0.5839,-0.5839,-0.5838,-0.5836,-0.5834,-0.5827,-0.5815,-0.5823,-0.5822,-0.582,-0.5805,-0.5801,-0.58,-0.579,-0.5793,-0.5792,-0.5792,-0.5792,-0.5781,-0.5781,0,0,0,0,0,0,-0.5863,-0.586,-0.584,-0.5839,-0.5849,-0.5835,-0.5833,-0.5829,-0.5815,-0.5813,-0.582,-0.582,-0.5803,-0.5801,-0.5799,-0.5797,-0.5792,-0.5791,-0.5791,-0.5781,-0.5781,-0.5781,0,0,0,0,0,0,-0.5864,-0.5861,-0.584,-0.5849,-0.5846,-0.5835,-0.583,-0.5828,-0.5825,-0.5813,-0.5811,-0.5819,-0.5802,-0.58,-0.5795,-0.5796,-0.5791,-0.5791,-0.5781,-0.5781,-0.5781,-0.5791,0,0,0,0,0,0,-0.5865,-0.5862,-0.586,-0.5849,-0.5846,-0.5836,-0.583,-0.5828,-0.5824,-0.5823,-0.5811,-0.5809,-0.5802,-0.5796,-0.5794,-0.5795,-0.579,-0.578,-0.5781,-0.5781,-0.5791,-0.5792,-0.5793,0,0,0,0,0,-0.5866,-0.5863,-0.586,-0.5858,-0.5843,-0.5836,-0.5834,-0.5826,-0.5824,-0.5822,-0.5816,-0.581,-0.5796,-0.5796,-0.5793,-0.5794,-0.578,-0.5781,-0.5781,-0.579,-0.5792,-0.5793,0,0,0,0,0,0,-0.5874,-0.5861,-0.5858,-0.5852,-0.5845,-0.5834,-0.5832,-0.5827,-0.5821,-0.582,-0.581,-0.5808,-0.5804,-0.5798,-0.5798,-0.5792,-0.5788,-0.5788,-0.5796,-0.5797,-0.5798,-0.5799,-0.5789,0,0,0,0,0,-0.5875,-0.587,-0.5859,-0.5855,-0.5852,-0.5843,-0.5839,-0.5834,-0.5826,-0.5823,-0.5816,-0.5809,-0.5804,-0.58,-0.5794,-0.579,-0.5788,-0.579,-0.5791,-0.5792,-0.5792,-0.5791,-0.5792,-0.5782,-0.5782,-0.5782,0,0,-0.5877,-0.587,-0.5867,-0.5857,-0.5851,-0.5846,-0.584,-0.5835,-0.5832,-0.5822,-0.5817,-0.5812,-0.5804,-0.58,-0.5797,-0.5795,-0.5794,-0.5792,-0.5793,-0.5792,-0.5792,-0.5793,-0.5793,-0.5782,-0.5782,-0.5782,0,0,-0.5879,-0.5873,-0.5869,-0.5864,-0.5856,-0.585,-0.5849,-0.584,-0.5836,-0.5831,-0.5824,-0.582,-0.581,-0.5806,-0.5802,-0.5805,-0.58,-0.5803,-0.5808,-0.5808,-0.5809,-0.5809,-0.5811,-0.5812,-0.5803,-0.5803,-0.5803,0,-0.5883,-0.5875,-0.5868,-0.5864,-0.586,-0.5853,-0.585,-0.5845,-0.5835,-0.5833,-0.583,-0.582,-0.5813,-0.5809,-0.581,-0.5807,-0.5807,-0.5804,-0.5809,-0.581,-0.581,-0.5812,-0.5813,-0.5804,-0.5804,-0.5804,-0.5804,0,-0.5881,-0.5876,-0.5875,-0.5866,-0.5862,-0.5859,-0.5852,-0.5849,-0.5844,-0.5839,-0.5835,-0.5828,-0.5821,-0.582,-0.5815,-0.5816,-0.5815,-0.5811,-0.5806,-0.5812,-0.5814,-0.5814,-0.5805,-0.5804,-0.5804,-0.5804,0,0,-0.5885,-0.5875,-0.5875,-0.5872,-0.5863,-0.586,-0.5857,-0.5851,-0.5849,-0.5843,-0.5841,-0.5835,-0.5832,-0.5828,-0.5823,-0.5822,-0.5827,-0.5819,-0.5818,-0.5821,-0.5829,-0.5832,-0.5833,-0.5824,-0.5824,-0.5824,-0.583,0,-0.5886,-0.588,-0.5875,-0.5871,-0.5868,-0.5862,-0.5859,-0.5855,-0.585,-0.5847,-0.5843,-0.5838,-0.5834,-0.5832,-0.5832,-0.5826,-0.5828,-0.5826,-0.5823,-0.5823,-0.5825,-0.5834,-0.5836,-0.5842,-0.583,-0.583,-0.5831,0,-0.5886,-0.5882,-0.5878,-0.5872,-0.587,-0.5868,-0.5864,-0.5861,-0.5856,-0.5853,-0.585,-0.5845,-0.5843,-0.5839,-0.5837,-0.5835,-0.5834,-0.5831,-0.5832,-0.5831,-0.5827,-0.5834,-0.5843,-0.5844,-0.5831,-0.5831,-0.5831,0,-0.5891,-0.5884,-0.5881,-0.5879,-0.5872,-0.5871,-0.5868,-0.5863,-0.5861,-0.5857,-0.5856,-0.5852,-0.5849,-0.5847,-0.5842,-0.584,-0.5841,-0.5836,-0.5839,-0.5839,-0.5839,-0.5839,-0.5849,-0.5838,-0.5838,-0.5837,-0.5837,0,-0.5892,-0.589,-0.5884,-0.5882,-0.5881,-0.5875,-0.5874,-0.587,-0.5866,-0.5865,-0.586,-0.5858,-0.5851,-0.585,-0.5846,-0.5845,-0.5844,-0.5842,-0.5841,-0.5843,-0.5843,-0.5841,-0.5841,-0.5838,-0.5838,-0.5838,-0.5838,0,-0.5897,-0.5892,-0.5889,-0.5884,-0.5882,-0.5881,-0.5877,-0.5876,-0.5872,-0.587,-0.587,-0.5864,-0.5862,-0.5857,-0.5853,-0.5851,-0.5851,-0.5849,-0.5853,-0.5853,-0.5856,-0.5856,-0.5865,-0.5867,-0.5854,-0.5854,-0.5854,0,-0.5898,-0.5897,-0.5892,-0.589,-0.5888,-0.5886,-0.5884,-0.5879,-0.5878,-0.5874,-0.5873,-0.5871,-0.5869,-0.5866,-0.5862,-0.586,-0.5858,-0.5861,-0.5857,-0.586,-0.5859,-0.5859,-0.586,-0.5862,-0.5862,-0.5862,-0.5862,0,-0.5901,-0.59,-0.5897,-0.5895,-0.5893,-0.5891,-0.5888,-0.5887,-0.5882,-0.5881,-0.5879,-0.5878,-0.5875,-0.5873,-0.5871,-0.5869,-0.5865,-0.5864,-0.5865,-0.5866,-0.5869,-0.5869,-0.5856,-0.5864,-0.5863,-0.5863,-0.5863,-0.5863,-0.5904,-0.5904,-0.5901,-0.5899,-0.5897,-0.5895,-0.5894,-0.5892,-0.589,-0.5888,-0.5885,-0.5884,-0.5882,-0.5879,-0.5877,-0.5877,-0.5874,-0.5875,-0.5875,-0.5876,-0.5877,-0.5869,-0.5876,-0.5876,-0.5876,-0.5876,-0.5876,0,-0.5907,-0.5906,-0.5904,-0.5902,-0.5901,-0.5899,-0.5896,-0.5896,-0.5895,-0.5893,-0.5892,-0.5891,-0.589,-0.5887,-0.5886,-0.5887,-0.5885,-0.5887,-0.5887,-0.5887,-0.5878,-0.5878,-0.5888,-0.5888,-0.5888,-0.5888,-0.5888,-0.5888,-0.5909,-0.5908,-0.5907,-0.5906,-0.5905,-0.5904,-0.5903,-0.5902,-0.5901,-0.59,-0.59,-0.5898,-0.5896,-0.5896,-0.5895,-0.5895,-0.5895,-0.5897,-0.5896,-0.5888,-0.5887,-0.5886,-0.5886,-0.5897,-0.5897,-0.5904,-0.5904,-0.5904]}]]